sat.trackr.live / text

‹ back to catalog

HULIANWANG DIGUI-50

NORAD 65107 · 2025-168B

PAYLOAD ACTIVE UNKNOWN

§ Identity

Operator
Country
PRC
Launch date
2025-08-04
Launch site
WSC
Launch vehicle
Mass (kg)
RCS (m²)

External: N2YO · Heavens-Above · Gunter

§ Orbital elements

Epoch: 2026-05-25T03:33:04.112064Z

Period
108.33 min
Inclination
50.0012°
Eccentricity
0.0009321
Mean motion
13.29317469 rev/d
Perigee alt
1,142.3 km
Apogee alt
1,156.4 km
Semi-major
7,527.5 km
B*
1.2444e-4
RAAN
48.4476°
Arg perigee
20.5528°
Mean anomaly
339.5717°
Rev number
3,962

§ Raw data

HULIANWANG DIGUI-501 65107U 25168B   26145.14796426 -.00000066  00000+0  12444-3 0  99982 65107  50.0012  48.4476 0009321  20.5528 339.5717 13.29317469 39629

JSON: /api/v1/satellites/65107 · /tle

For live sub-satellite position, see the globe view (requires WebGL).

§ Visibility from observer

Set your observer location to see the next 7 days of passes ≥ 10°. The values pass through the URL so the page stays shareable.

No JS? Fill the form by hand. The geolocation button needs JavaScript.